NKS125 KLAX-KSFO

Flight info

Callsign NKS125
Flight time 0h 52m
Altitude 30000
Route SUMMR2 STOKD SERFR SERFR4
Aircraft A320/M-SDE3FGHIRWY/LB1

Departure

Time 2026-05-04 12:52
Airport Los Angeles International Airport (KLAX)

Arrival

Time 2026-05-04 13:44
Airport San Francisco International Airport (KSFO)
Time Latitude Longitude Altitude Speed Heading
2026-05-04 12:29 33.94657 -118.40491 126 ft 0 kts 117°
2026-05-04 12:39 33.94660 -118.40498 122 ft 2 kts 115°
2026-05-04 12:39 33.94668 -118.40516 123 ft 2 kts 117°
2026-05-04 12:39 33.94676 -118.40533 120 ft 2 kts 102°
2026-05-04 12:40 33.94673 -118.40552 122 ft 2 kts 37°
2026-05-04 12:40 33.94659 -118.40561 121 ft 2 kts 12°
2026-05-04 12:40 33.94645 -118.40564 124 ft 1 kts 358°
2026-05-04 12:40 33.94640 -118.40564 124 ft 0 kts 354°
2026-05-04 12:42 33.94649 -118.40565 122 ft 3 kts 354°
2026-05-04 12:42 33.94684 -118.40571 123 ft 7 kts 353°
2026-05-04 12:42 33.94749 -118.40581 123 ft 11 kts 353°
2026-05-04 12:42 33.94836 -118.40599 123 ft 9 kts 353°
2026-05-04 12:43 33.94858 -118.40667 124 ft 11 kts 260°
2026-05-04 12:43 33.94847 -118.40779 126 ft 15 kts 265°
2026-05-04 12:43 33.94832 -118.40919 122 ft 18 kts 263°
2026-05-04 12:43 33.94817 -118.41071 121 ft 19 kts 263°
2026-05-04 12:44 33.94801 -118.41222 123 ft 14 kts 263°
2026-05-04 12:44 33.94736 -118.41291 122 ft 14 kts 175°
2026-05-04 12:44 33.94633 -118.41277 125 ft 16 kts 174°
2026-05-04 12:44 33.94522 -118.41261 123 ft 17 kts 172°
2026-05-04 12:45 33.94402 -118.41242 121 ft 18 kts 173°
2026-05-04 12:45 33.94275 -118.41225 124 ft 19 kts 169°
2026-05-04 12:45 33.94140 -118.41203 123 ft 20 kts 173°
2026-05-04 12:45 33.94000 -118.41182 123 ft 20 kts 173°
2026-05-04 12:46 33.93865 -118.41163 124 ft 18 kts 173°
2026-05-04 12:46 33.93770 -118.41115 124 ft 15 kts 111°
2026-05-04 12:46 33.93776 -118.40994 126 ft 15 kts 83°
2026-05-04 12:46 33.93789 -118.40869 126 ft 15 kts 81°
2026-05-04 12:47 33.93804 -118.40741 125 ft 16 kts 84°
2026-05-04 12:47 33.93816 -118.40607 126 ft 16 kts 83°
2026-05-04 12:47 33.93830 -118.40466 125 ft 18 kts 83°
2026-05-04 12:47 33.93846 -118.40310 126 ft 20 kts 83°
2026-05-04 12:48 33.93865 -118.40138 122 ft 22 kts 82°
2026-05-04 12:48 33.93884 -118.39946 122 ft 24 kts 83°
2026-05-04 12:48 33.93903 -118.39754 126 ft 19 kts 83°
2026-05-04 12:48 33.93920 -118.39587 126 ft 21 kts 83°
2026-05-04 12:49 33.93941 -118.39401 122 ft 24 kts 83°
2026-05-04 12:49 33.93961 -118.39195 126 ft 26 kts 83°
2026-05-04 12:49 33.93980 -118.38996 126 ft 22 kts 83°
2026-05-04 12:49 33.94000 -118.38811 124 ft 23 kts 83°
2026-05-04 12:50 33.94017 -118.38648 124 ft 18 kts 83°
2026-05-04 12:50 33.94033 -118.38489 126 ft 20 kts 83°
2026-05-04 12:50 33.94043 -118.38370 126 ft 12 kts 95°
2026-05-04 12:50 33.93983 -118.38326 124 ft 9 kts 176°
2026-05-04 12:51 33.93947 -118.38388 125 ft 11 kts 263°
2026-05-04 12:51 33.93927 -118.38583 123 ft 53 kts 263°
2026-05-04 12:51 33.93853 -118.39303 123 ft 116 kts 263°
2026-05-04 12:51 33.93731 -118.40457 167 ft 158 kts 263°
2026-05-04 12:52 33.93598 -118.41760 857 ft 156 kts 263°
2026-05-04 12:52 33.93488 -118.43067 1619 ft 156 kts 264°
2026-05-04 12:52 33.93356 -118.44402 2162 ft 170 kts 263°
2026-05-04 12:52 33.93204 -118.45907 2514 ft 193 kts 263°
2026-05-04 12:53 33.93047 -118.47618 2903 ft 218 kts 264°
2026-05-04 12:53 33.92880 -118.49532 3393 ft 242 kts 264°
2026-05-04 12:53 33.92708 -118.51586 4170 ft 254 kts 265°
2026-05-04 12:53 33.92531 -118.53721 5191 ft 258 kts 265°
2026-05-04 12:54 33.92354 -118.55876 6193 ft 260 kts 265°
2026-05-04 12:54 33.92174 -118.58062 7158 ft 263 kts 264°
2026-05-04 12:54 33.91991 -118.60267 8104 ft 267 kts 264°
2026-05-04 12:54 33.91806 -118.62512 9035 ft 271 kts 264°
2026-05-04 12:55 33.91772 -118.64024 9615 ft 275 kts 269°
2026-05-04 12:55 33.91766 -118.66351 10286 ft 286 kts 268°
2026-05-04 12:55 33.91753 -118.68842 10623 ft 307 kts 268°
2026-05-04 12:55 33.91740 -118.71452 11270 ft 315 kts 268°
2026-05-04 12:56 33.91730 -118.74095 12096 ft 317 kts 267°
2026-05-04 12:56 33.91718 -118.76750 12945 ft 318 kts 267°
2026-05-04 12:56 33.91707 -118.79415 13789 ft 319 kts 266°
2026-05-04 12:56 33.91697 -118.82088 14530 ft 320 kts 266°
2026-05-04 12:57 33.91701 -118.84765 15276 ft 320 kts 267°
2026-05-04 12:57 33.91759 -118.87448 16017 ft 321 kts 268°
2026-05-04 12:57 33.91847 -118.90132 16765 ft 321 kts 268°
2026-05-04 12:57 33.91942 -118.92818 17526 ft 322 kts 268°
2026-05-04 12:58 33.92037 -118.95509 18259 ft 322 kts 268°
2026-05-04 12:58 33.92129 -118.98208 18905 ft 323 kts 268°
2026-05-04 12:58 33.92435 -119.00919 19533 ft 331 kts 278°
2026-05-04 12:58 33.93246 -119.03536 20161 ft 343 kts 289°
2026-05-04 12:59 33.94490 -119.06033 20779 ft 349 kts 292°
2026-05-04 12:59 33.95781 -119.08527 21378 ft 352 kts 292°
2026-05-04 12:59 33.97076 -119.11035 21927 ft 354 kts 292°
2026-05-04 12:59 33.98382 -119.13571 22468 ft 357 kts 292°
2026-05-04 13:00 33.99697 -119.16119 23005 ft 361 kts 293°
2026-05-04 13:00 34.01280 -119.18544 23527 ft 377 kts 303°
2026-05-04 13:00 34.03314 -119.20654 23959 ft 395 kts 313°
2026-05-04 13:00 34.05567 -119.22569 24399 ft 398 kts 313°
2026-05-04 13:01 34.07837 -119.24505 24838 ft 400 kts 313°
2026-05-04 13:01 34.10079 -119.26430 25250 ft 402 kts 313°
2026-05-04 13:01 34.12363 -119.28397 25675 ft 405 kts 312°
2026-05-04 13:01 34.14665 -119.30386 26092 ft 408 kts 312°
2026-05-04 13:02 34.16973 -119.32384 26531 ft 410 kts 312°
2026-05-04 13:02 34.19308 -119.34401 26940 ft 413 kts 311°
2026-05-04 13:02 34.21653 -119.36424 27344 ft 416 kts 311°
2026-05-04 13:02 34.24015 -119.38462 27750 ft 419 kts 311°
2026-05-04 13:03 34.26403 -119.40523 28146 ft 422 kts 311°
2026-05-04 13:03 34.28800 -119.42593 28538 ft 425 kts 311°
2026-05-04 13:03 34.31216 -119.44681 28941 ft 428 kts 311°
2026-05-04 13:03 34.33649 -119.46787 29331 ft 431 kts 311°
2026-05-04 13:04 34.36100 -119.48912 29721 ft 435 kts 310°
2026-05-04 13:04 34.38571 -119.51054 29985 ft 438 kts 310°
2026-05-04 13:04 34.40963 -119.53227 30031 ft 417 kts 306°
2026-05-04 13:04 34.43035 -119.55543 30037 ft 402 kts 300°
2026-05-04 13:05 34.45018 -119.58005 30039 ft 415 kts 300°
2026-05-04 13:05 34.47055 -119.60562 30037 ft 428 kts 301°
2026-05-04 13:05 34.49160 -119.63195 30025 ft 440 kts 301°
2026-05-04 13:05 34.51298 -119.65852 30040 ft 451 kts 302°
2026-05-04 13:06 34.53554 -119.68639 30036 ft 462 kts 302°
2026-05-04 13:06 34.58098 -119.74204 30040 ft 469 kts 303°
2026-05-04 13:07 34.62698 -119.79833 30040 ft 470 kts 302°
2026-05-04 13:07 34.67287 -119.85494 30056 ft 470 kts 302°
2026-05-04 13:08 34.71865 -119.91173 30059 ft 470 kts 302°
2026-05-04 13:08 34.76440 -119.96863 30060 ft 470 kts 302°
2026-05-04 13:09 34.81017 -120.02553 30064 ft 470 kts 303°
2026-05-04 13:09 34.85591 -120.08247 30068 ft 470 kts 303°
2026-05-04 13:10 34.90157 -120.13947 30068 ft 470 kts 303°
2026-05-04 13:10 34.94680 -120.19606 30064 ft 469 kts 303°
2026-05-04 13:11 34.99235 -120.25314 30068 ft 470 kts 303°
2026-05-04 13:11 35.03783 -120.31022 30064 ft 470 kts 303°
2026-05-04 13:12 35.08347 -120.36756 30064 ft 471 kts 303°
2026-05-04 13:12 35.13071 -120.42345 30065 ft 475 kts 307°
2026-05-04 13:13 35.18010 -120.47749 30071 ft 476 kts 308°
2026-05-04 13:13 35.22951 -120.53144 30061 ft 476 kts 307°
2026-05-04 13:14 35.27833 -120.58608 30067 ft 476 kts 307°
2026-05-04 13:14 35.32697 -120.64113 30067 ft 476 kts 307°
2026-05-04 13:15 35.37562 -120.69616 30067 ft 476 kts 307°
2026-05-04 13:15 35.42423 -120.75113 30057 ft 475 kts 307°
2026-05-04 13:16 35.47275 -120.80607 30080 ft 475 kts 307°
2026-05-04 13:16 35.52516 -120.85703 30088 ft 483 kts 312°
2026-05-04 13:17 35.57889 -120.90664 30091 ft 483 kts 312°
2026-05-04 13:17 35.63251 -120.95627 30087 ft 482 kts 312°
2026-05-04 13:18 35.68564 -121.00573 30084 ft 482 kts 312°
2026-05-04 13:18 35.73899 -121.05559 30087 ft 481 kts 312°
2026-05-04 13:19 35.79226 -121.10537 30091 ft 480 kts 312°
2026-05-04 13:19 35.84551 -121.15513 30102 ft 480 kts 312°
2026-05-04 13:20 35.89857 -121.20481 30104 ft 479 kts 312°
2026-05-04 13:20 35.95158 -121.25460 30100 ft 478 kts 313°
2026-05-04 13:21 36.00455 -121.30452 30089 ft 478 kts 313°
2026-05-04 13:21 36.05693 -121.35373 29766 ft 461 kts 313°
2026-05-04 13:21 36.08318 -121.37598 29483 ft 454 kts 318°
2026-05-04 13:22 36.10959 -121.39647 29213 ft 442 kts 319°
2026-05-04 13:22 36.13528 -121.41640 28986 ft 430 kts 319°
2026-05-04 13:22 36.16023 -121.43578 28817 ft 417 kts 319°
2026-05-04 13:22 36.18456 -121.45477 28340 ft 411 kts 319°
2026-05-04 13:23 36.20852 -121.47359 27854 ft 407 kts 320°
2026-05-04 13:23 36.23207 -121.49215 27415 ft 403 kts 320°
2026-05-04 13:23 36.25560 -121.51065 26960 ft 399 kts 321°
2026-05-04 13:23 36.27894 -121.52901 26545 ft 395 kts 321°
2026-05-04 13:24 36.30202 -121.54714 26128 ft 391 kts 322°
2026-05-04 13:24 36.32493 -121.56510 25694 ft 388 kts 323°
2026-05-04 13:24 36.34763 -121.58289 25278 ft 385 kts 323°
2026-05-04 13:25 36.39263 -121.61816 24409 ft 381 kts 325°
2026-05-04 13:25 36.41495 -121.63571 23965 ft 379 kts 326°
2026-05-04 13:25 36.43713 -121.65317 23514 ft 377 kts 326°
2026-05-04 13:25 36.45920 -121.67059 23039 ft 373 kts 327°
2026-05-04 13:26 36.48098 -121.68777 22614 ft 369 kts 327°
2026-05-04 13:26 36.50258 -121.70480 22187 ft 365 kts 327°
2026-05-04 13:26 36.52388 -121.72162 21770 ft 361 kts 327°
2026-05-04 13:26 36.54492 -121.73824 21355 ft 357 kts 327°
2026-05-04 13:27 36.56579 -121.75475 20936 ft 354 kts 327°
2026-05-04 13:27 36.58647 -121.77114 20534 ft 351 kts 328°
2026-05-04 13:27 36.60698 -121.78742 20130 ft 348 kts 328°
2026-05-04 13:27 36.62733 -121.80354 19726 ft 346 kts 328°
2026-05-04 13:28 36.64758 -121.81954 19320 ft 344 kts 328°
2026-05-04 13:28 36.66741 -121.83523 18926 ft 342 kts 328°
2026-05-04 13:28 36.68740 -121.85111 18539 ft 340 kts 328°
2026-05-04 13:28 36.70731 -121.86696 18108 ft 338 kts 328°
2026-05-04 13:29 36.72707 -121.88254 17694 ft 335 kts 331°
2026-05-04 13:29 36.74806 -121.89467 17301 ft 330 kts 342°
2026-05-04 13:29 36.77013 -121.90207 16914 ft 327 kts 349°
2026-05-04 13:29 36.79226 -121.90816 16518 ft 325 kts 348°
2026-05-04 13:30 36.81432 -121.91432 16118 ft 324 kts 348°
2026-05-04 13:30 36.83624 -121.92047 15740 ft 322 kts 348°
2026-05-04 13:30 36.85804 -121.92664 15363 ft 320 kts 348°
2026-05-04 13:30 36.87971 -121.93275 14990 ft 319 kts 348°
2026-05-04 13:31 36.90135 -121.93884 14614 ft 318 kts 348°
2026-05-04 13:31 36.92292 -121.94489 14240 ft 317 kts 348°
2026-05-04 13:31 36.94333 -121.95060 13893 ft 317 kts 348°
2026-05-04 13:31 36.96474 -121.95720 13499 ft 315 kts 346°
2026-05-04 13:32 36.98578 -121.96490 13137 ft 313 kts 344°
2026-05-04 13:32 37.00646 -121.97312 12782 ft 311 kts 343°
2026-05-04 13:32 37.02697 -121.98149 12425 ft 309 kts 343°
2026-05-04 13:32 37.04738 -121.98981 12068 ft 308 kts 342°
2026-05-04 13:33 37.06772 -121.99802 11714 ft 306 kts 343°
2026-05-04 13:33 37.08797 -122.00608 11356 ft 304 kts 343°
2026-05-04 13:33 37.10815 -122.01403 11000 ft 303 kts 343°
2026-05-04 13:33 37.12829 -122.02191 10641 ft 302 kts 343°
2026-05-04 13:34 37.14831 -122.02973 10288 ft 301 kts 342°
2026-05-04 13:34 37.16807 -122.03746 9941 ft 300 kts 342°
2026-05-04 13:34 37.18777 -122.04518 9666 ft 296 kts 342°
2026-05-04 13:34 37.20740 -122.05285 9373 ft 292 kts 342°
2026-05-04 13:35 37.22654 -122.06032 9186 ft 285 kts 342°
2026-05-04 13:35 37.26416 -122.07507 8552 ft 282 kts 342°
2026-05-04 13:35 37.28288 -122.08243 8234 ft 281 kts 342°
2026-05-04 13:36 37.30147 -122.08975 7913 ft 280 kts 342°
2026-05-04 13:36 37.32008 -122.09709 7601 ft 279 kts 342°
2026-05-04 13:36 37.33862 -122.10439 7279 ft 279 kts 342°
2026-05-04 13:36 37.35712 -122.11169 6960 ft 278 kts 342°
2026-05-04 13:37 37.37550 -122.11897 6517 ft 276 kts 343°
2026-05-04 13:37 37.39388 -122.12572 5923 ft 274 kts 345°
2026-05-04 13:37 37.41225 -122.13192 5394 ft 271 kts 345°
2026-05-04 13:37 37.42427 -122.13586 5045 ft 268 kts 345°
2026-05-04 13:38 37.44843 -122.14370 4147 ft 270 kts 345°
2026-05-04 13:38 37.45452 -122.14569 3918 ft 271 kts 345°
2026-05-04 13:38 37.47457 -122.15237 3590 ft 255 kts 344°
2026-05-04 13:38 37.49139 -122.15798 3427 ft 245 kts 344°
2026-05-04 13:39 37.50760 -122.16339 3312 ft 236 kts 344°
2026-05-04 13:39 37.52285 -122.16867 3206 ft 225 kts 339°
2026-05-04 13:39 37.53585 -122.17833 3119 ft 211 kts 315°
2026-05-04 13:39 37.54435 -122.19273 2968 ft 202 kts 297°
2026-05-04 13:40 37.55088 -122.20823 2757 ft 197 kts 296°
2026-05-04 13:40 37.55718 -122.22322 2482 ft 190 kts 297°
2026-05-04 13:40 37.56320 -122.23750 2218 ft 177 kts 297°
2026-05-04 13:40 37.56864 -122.25041 2013 ft 155 kts 296°
2026-05-04 13:41 37.57352 -122.26200 1801 ft 152 kts 296°
2026-05-04 13:41 37.57856 -122.27397 1576 ft 156 kts 296°
2026-05-04 13:41 37.58191 -122.28193 1433 ft 149 kts 297°
2026-05-04 13:42 37.59105 -122.30364 1037 ft 137 kts 296°
2026-05-04 13:42 37.59553 -122.31414 859 ft 135 kts 298°
2026-05-04 13:42 37.60007 -122.32460 648 ft 136 kts 298°
2026-05-04 13:42 37.60422 -122.33523 401 ft 135 kts 296°
2026-05-04 13:43 37.60864 -122.34565 240 ft 134 kts 298°
2026-05-04 13:43 37.61304 -122.35610 121 ft 136 kts 298°
2026-05-04 13:43 37.61742 -122.36644 32 ft 125 kts 298°
2026-05-04 13:43 37.62085 -122.37460 24 ft 83 kts 298°
2026-05-04 13:44 37.62291 -122.37952 23 ft 51 kts 298°
2026-05-04 13:44 37.62373 -122.38192 22 ft 17 kts 243°
2026-05-04 13:44 37.62293 -122.38254 24 ft 10 kts 207°
2026-05-04 13:44 37.62219 -122.38302 23 ft 14 kts 207°
2026-05-04 13:45 37.62136 -122.38357 24 ft 13 kts 207°
2026-05-04 13:45 37.62065 -122.38395 22 ft 12 kts 184°
2026-05-04 13:45 37.62015 -122.38373 22 ft 7 kts 197°
2026-05-04 13:45 37.61984 -122.38398 22 ft 4 kts 216°
2026-05-04 13:46 37.61976 -122.38406 24 ft 0 kts 216°